Showing default

IRIDIUM 179, 56730

Orbit data source: Space-Track

IRIDIUM 179, 56730 is a payload satellite owned by Iridium (US) in LEO that was launched on Sat, 20 May 2023 UTC via an FALCON 9 launch vehicle from the Air Force Western Test Range (AFWTR). Payload-class satellites include a variety of spacecraft equipped with specific instruments for various scientific and technological missions. These include communications satellites like Starlink; space stations such as the ISS; scientific satellites like the Hubble; Earth observation satellites from companies like Planet Labs, Umbra, and HawkEye 360; GPS; miniature CubeSats for education and research; and military/defense satellites.

Loading next visibility...
Identifier
56730, 2023-068W
Orbit
LEO
Country
Flag of USUS
Related business
Manufacturer
NGIS SSG Gilbert
Mission
Operational Commercial Communications
Bus & Motor
ELITEBUS, Unknown motor
Mass
860 kg wet, 700 kg dry
Launch date (UTC)
2023-05-20 (3 years ago)
Launch vehicle
FALCON 9
Launch site
Air Force Western Test Range (AFWTR)
Object type
Payload
Rocket body
Debris
Shape & HBR
Trap Box + 2 Pan, 4.8 m
Radar Cross Section
10.154 m², Large (>1 m²)

Expand to show TLE details & history
Last TLE update: 2 days ago

TLE from 2 days ago
0 IRIDIUM 179
1 56730U 23068W   26171.34838329  .00000700  00000-0  88708-4 0  9999
2 56730  86.6772  33.0280 0002470  88.2467 271.9038 14.80235509166834
Epoch: 2026-06-20T08:21Z
TLE epoch observation values (Epoch: 2026-06-20T08:21:40.316Z)
Latitude
0.00004°
Longitude
-0.95428°
Altitude
631.643 km
Speed
7.543 km/s
True Right ascension
02h 12m 06s
True Declination
0° 00' 00"
Sunlit
Object was in daylight at epoch
Visualization orbit readout
Latitude
Unknown
Longitude
Unknown
Altitude
Unknown
Speed
Unknown
Apparent Right ascension
Unknown
Apparent Declination
Unknown
Sunlit
N/A
Visualization observer readout
Local Sidereal Time
21:31:02
Azimuth
Unknown
Elevation
Unknown
Doppler factor
Unknown
Orbital elements
Apogee altitude
627.205 km
Perigee altitude
623.745 km
Semi-major axis
7,003.612 km
Eccentricity
0.00025
Inclination
86.6772°
RAAN
33.028°
Arg. of periapsis
88.2467°
True anomaly
271.87551°
Mean anomaly
271.9038°
Eccentric anomaly
271.88966°
Mean motion
3.70305 °/min
Orbital period
97.22 mins
BSTAR
0.000088708
Loading maneuver chart data...
Computing Atmospheric mass density...
Loading historical data...
Loading historical data...
Loading historical data...
Loading historical data...
Loading historical data...
Loading historical data...
Loading historical data...

Documentation

Showing up to 5 results
|